Regional Weather Roundup
Issued by NWS

Home | Current Version | Previous Version | Text Only | Print | Product List | Glossary Off
Versions: 1 2 3 4 5 6 7 8 9 10 11 12 13 14 15 16 17 18 19 20 21 22 23 24 25 26 27 28 29 30 31 32 33 34 35 36 37 38 39 40 41 42 43 44 45 46 47 48 49 50

552
ASUS43 KMPX 191701
RWRMN
WEATHER ROUNDUP FOR MINNESOTA
NATIONAL WEATHER SERVICE TWIN CITIES/CHANHASSEN MN
1100 AM CST MON FEB 19 2018


NOTE: "FAIR" INDICATES FEW OR NO CLOUDS BELOW 12,000 FEET WITH NO
SIGNIFICANT WEATHER AND/OR OBSTRUCTIONS TO VISIBILITY. N/A MEANS
CURRENT SKY AND/OR WEATHER CONDITIONS ARE NOT AVAILABLE.

MNZ060>063-068>070-191800-
   Twin Cities Metro

CITY           SKY/WX    TMP DP  RH WIND       PRES   REMARKS
TWIN CITIES    LGT SNOW  21  19  92 N13G22    29.91R FOG     WCI   9
ST PAUL        LGT SNOW  23  19  85 NE13G21   29.93R FOG     WCI  11
CRYSTAL        LGT SNOW  19  14  81 N14G20    29.92R WCI   6
BLAINE         LGT SNOW  19  18  93 NE14G21   29.91F FOG     WCI   6
LAKEVILLE      LGT SNOW  21  19  93 NE12      29.87F WCI   9
EDEN PRAIRIE   LGT SNOW  20  16  84 NE14G23   29.88S FOG     WCI   7
SOUTH ST PAUL  CLOUDY    24  20  85 NE8       29.90S FOG     WCI  14
LAKE ELMO      LGT SNOW  23  21  93 NE14G20   29.91S WCI  11
$$
MNZ001>005-007-008-013>017-022>024-027-028-191800-
   Northwest Minnesota

CITY           SKY/WX    TMP DP  RH WIND       PRES   REMARKS
BEMIDJI        FAIR       7  -1  67 N12       30.14S WCI  -8
HALLOCK        FAIR      -2  -9  71 N9        30.29F WCI -18
ROSEAU         FAIR       0  -8  71 NE5       30.27R WCI -10
WARROAD        FAIR       1  -8  66 E3        30.26R
THIEF RVR FALL FAIR       4  -6  63 NE14      30.22F WCI -14
CROOKSTON      FAIR       5  -4  66 N13       30.25F WCI -12
FOSSTON        FAIR       5  -2  72 N10       30.18F WCI -10
DETROIT LAKES  FAIR      12   1  62 NE14G20   30.10F WCI  -3
MOORHEAD       FAIR       9   0  66 N20G25    30.17F WCI -11
PARK RAPIDS    CLOUDY     9   0  67 NE14G25   30.07F WCI  -7
MAHNOMEN       PTSUNNY    6   0  76 N18       30.14F WCI -14
$$
MNZ006-009>011-018-025>026-191800-
   North Central Minnesota

CITY           SKY/WX    TMP DP  RH WIND       PRES   REMARKS
BAUDETTE       FAIR       1  -6  72 NW5       30.22S WCI  -9
FLAG ISLAND    FAIR      -4 -11  71 NW5       30.26R WCI -15
INTL FALLS     FAIR       4  -3  73 NE8       30.22R WCI  -9
WASKISH        CLOUDY     7   0  72 NE8       30.19F WCI  -6
BIG FORK       FAIR       9   0  66 N8        30.15S WCI  -4
LONGVILLE      FAIR       9   0  66 N9        30.10F WCI  -5
GRAND RAPIDS   CLOUDY     7  -1  70 N9        30.13F WCI  -7
CRANE LAKE     FAIR       7  -2  66 NE7       30.21F WCI  -5
ORR            FAIR       7  -2  66 NE5       30.13F WCI  -2
COOK             N/A      7   0  72 NE6       30.15S WCI  -3
WALKER         PTSUNNY    8  -1  65 NE9       30.12S WCI  -6
$$
MNZ012-019>021-037-191800-
   Northeast Minnesota

CITY           SKY/WX    TMP DP  RH WIND       PRES   REMARKS
DULUTH         LGT SNOW  10   5  80 N10       30.03F VSB 1   WCI  -4
ELY            FAIR       5  -2  72 N5        30.14S WCI  -4
HIBBING        CLOUDY     6  -2  69 N8        30.11S WCI  -7
EVELETH        FAIR     N/A N/A N/A NE9       30.12S
DULUTH HARBOR  LGT SNOW  16  12  86 NE24G31   30.09F VSB 1   WCI  -3
TWO HARBORS    LGT SNOW  16   7  67 NE12G18   30.07F WCI   3
G MARAIS ARPRT FAIR       3  -6  66 N9        30.09R WCI -11
$$
MNZ029>031-032-039>041-046>048-054>057-064-191800-
   West Central Minnesota

CITY           SKY/WX    TMP DP  RH WIND       PRES   REMARKS
FERGUS FALLS   FAIR      12   1  62 NE13G21   30.08F WCI  -3
WHEATON        LGT SNOW  10   3  72 N17G23    30.09F WCI  -7
MORRIS         LGT SNOW  14   9  79 N18G24    30.01S WCI  -3
ALEXANDRIA     LGT SNOW  11   6  81 NE18G26   29.99F WCI  -7
ELBOW LAKE     FAIR      11   3  71 NE16G23   30.05S WCI  -6
WADENA         FAIR       9   1  72 N16       30.04F WCI  -9
GLENWOOD       LGT SNOW  12   9  85 N21       29.98S WCI  -6
APPLETON       CLOUDY    16  10  79 N20       30.01R WCI  -1
BENSON           N/A     16   9  73 NE20G26   30.01R WCI  -1
ORTONVILLE     CLOUDY    12   7  79 N24       30.01F HAZE    WCI  -8
MADISON        FLURRIES  18  12  79 N20       30.01R WCI   1
WILLMAR        CLOUDY    16  10  79 NE22      29.95F WCI  -2
$$
MNZ033>034-036-042>043-049>051-058-059-191800-
   Central Minnesota

CITY           SKY/WX    TMP DP  RH WIND       PRES   REMARKS
ST CLOUD       FLURRIES  15   9  76 N10       29.97S WCI   2
SAUK CENTRE    LGT SNOW  12   7  79 N18G25    29.99S WCI  -5
PAYNESVILLE    CLOUDY    15  11  85 NE16G24   29.95F WCI  -1
AITKIN         PTSUNNY    9   1  72 N14G22    30.03F HAZE    WCI  -8
PINE RIVER     LGT SNOW   7   0  72 N16       30.09F WCI -11
BRAINERD       LGT SNOW  11   3  70 N16       30.04R WCI  -6
STAPLES        LGT SNOW  10   1  67 N13G20    30.04F WCI  -5
LONG PRAIRIE   LGT SNOW  10   7  85 NW16      30.00S WCI  -7
LITTLE FALLS   LGT SNOW  12   3  67 N6        30.02S WCI   3
LITCHFIELD     CLOUDY    18  14  86 NE16G22   29.93F FOG     WCI   3
BUFFALO        LGT SNOW  18  14  85 N13G20    29.95S WCI   4
MAPLE LAKE     LGT SNOW  18  15  86 N13G18    29.97R WCI   5
HUTCHINSON     LGT SNOW  18  15  86 N15G21    29.92S WCI   4
$$
MNZ037-044-045-052-053-191800-
   East Central Minnesota

CITY           SKY/WX    TMP DP  RH WIND       PRES   REMARKS
PRINCETON      LGT SNOW  18  12  79 NE18      29.96F WCI   2
MORA           LGT SNOW  14  10  85 NE5       30.01F VSB 1   WCI   6
CAMBRIDGE      LGT SNOW  19  10  68 N10G20    29.97R WCI   8
RUSH CITY      LGT SNOW  18  13  82 NE10G18   29.97F VSB 1   WCI   6
MOOSE LAKE     LGT SNOW  14   9  79 NE12      30.02R WCI   0
HINCKLEY       LGT SNOW  16  12  86 N12       30.00S VSB 1   WCI   3
CLOQUET        LGT SNOW   9   3  78 N12G18    30.03F VSB 1   WCI  -6
MCGREGOR       CLOUDY    10   5  79 N15G21    30.04F WCI  -6
$$
MNZ071>073-080-081-089-090-097-098-191800-
   Southwest Minnesota

CITY           SKY/WX    TMP DP  RH WIND       PRES   REMARKS
MONTEVIDEO     CLOUDY    16  10  79 NE18G25   29.98R WCI  -1
GRANITE FALLS  CLOUDY    19  13  79 N20       29.96F WCI   2
CANBY          LGT SNOW  15  11  85 N13G23    29.99S WCI   0
MARSHALL       FLURRIES  15  11  83 N20       29.93F WCI  -2
REDWOOD FALLS  LGT SNOW  17  13  84 NE10G17   29.91F FOG     WCI   5
OLIVIA         CLOUDY    18  12  79 NE15G24   29.91F WCI   3
PIPESTONE      CLOUDY    14  10  85 NE21G28   29.84R WCI  -4
WINDOM         LGT SNOW  16   3  57 N21       29.82F WCI  -2
WORTHINGTON    FLURRIES  16  12  84 N25G33    29.81F WCI  -3
JACKSON        CLOUDY    18  14  86 N17G23    29.81F FOG     WCI   2
TRACY          LGT SNOW  17  14  90 N15       29.89S WCI   2
SLAYTON        LGT SNOW  14  12  90 N20G30    29.83F WCI  -3
$$
MNZ065>067-074>077-082>085-091>093-191800-
   South Central Minnesota

CITY           SKY/WX    TMP DP  RH WIND       PRES   REMARKS
MANKATO        MIX PCPN  21  18  88 N17       29.85S FOG     WCI   7
NEW ULM        LGT SNOW  18  14  86 NE14      29.87F WCI   4
ST JAMES       CLOUDY    19  16  86 N15       29.86F WCI   5
FAIRMONT       LGT SNOW  21  18  88 MISG      29.82S FOG
GLENCOE        LGT SNOW  19  17  89 N9G18     29.91R VSB 3/4 WCI   9
FARIBAULT      MIX PCPN  23  21  93 N12G20    29.85S WCI  12
OWATONNA       MIX PCPN  25  21  86 N15G21    29.81S WCI  12
WASECA         LGT SNOW  23  21  93 N16       29.83S WCI  10
ALBERT LEA     MIX PCPN  27  25  93 N13       29.78R WCI  16
$$
MNZ078>079-086>088-094>096-191800-
   Southeast Minnesota

CITY           SKY/WX    TMP DP  RH WIND       PRES   REMARKS
ROCHESTER      FRZ RAIN  29  28  96 NE20      29.78S FOG     WCI  16
RED WING       LGT SNOW  27  21  80 NE9       29.87R WCI  17
STANTON        LGT SNOW  25  22  87 NE17      29.85S WCI  11
DODGE CENTER   MIX PCPN  27  25  93 NE15G21   29.78F WCI  15
WINONA         MIX PCPN  34  32  93 NE9       29.82R WCI  26
AUSTIN         MIX PCPN  30  27  86 NE12      29.76S WCI  21
PRESTON        CLOUDY    31  30  94 NE13      29.77S FOG     WCI  21
$$
ABBREVIATIONS USED IN REMARKS
   TC - TEMPERATURES IN CELSIUS
  WCI - WIND CHILL INDEX
   HX - HEAT INDEX
  VSB - VISIBILITY
$$




USA.gov is the U.S. government's official web portal to all federal, state and local government web resources and services.